Stündliche Wetter Abay (Maktaaralskiy rayon)

Heute, 27 Februar, Samstag

Zeit Temperatur Niederschläge Wind Luftdruck Luftfeuchtigkeit
00:00 -2°C° 0 mm 1 m/S 747 mmHg 56%
01:00 -2°C° 0 mm 1 m/S 746 mmHg 56%
02:00 -2°C° 0 mm 1 m/S 746 mmHg 56%
03:00 -2°C° 0 mm 1 m/S 746 mmHg 56%
04:00 -2°C° 0 mm 1 m/S 746 mmHg 56%
05:00 -2°C° 0 mm 1 m/S 746 mmHg 55%
06:00 -1°C° 0 mm 1 m/S 746 mmHg 53%
07:00 -3°C° 0 mm 2 m/S 746 mmHg 52%
08:00 -3°C° 0 mm 2 m/S 746 mmHg 51%
09:00 -2°C° 0 mm 2 m/S 746 mmHg 47%
10:00 0°C° 0 mm 3 m/S 747 mmHg 43%
11:00 +1°C° 0 mm 3 m/S 746 mmHg 39%
12:00 +2°C° 0 mm 3 m/S 746 mmHg 37%
13:00 +3°C° 0 mm 3 m/S 746 mmHg 34%
14:00 +4°C° 0 mm 3 m/S 746 mmHg 32%
15:00 +4°C° 0 mm 3 m/S 746 mmHg 35%
16:00 +4°C° 0 mm 3 m/S 746 mmHg 38%
17:00 +4°C° 0 mm 3 m/S 746 mmHg 40%
18:00 +3°C° 0 mm 3 m/S 747 mmHg 44%
19:00 +2°C° 0 mm 3 m/S 747 mmHg 49%
20:00 +1°C° 0 mm 3 m/S 748 mmHg 53%
21:00 +1°C° 0 mm 3 m/S 748 mmHg 55%
22:00 0°C° 0 mm 3 m/S 747 mmHg 56%
23:00 0°C° 0 mm 3 m/S 747 mmHg 57%

Morgen, 28 Februar, Sonntag

Zeit Temperatur Niederschläge Wind Luftdruck Luftfeuchtigkeit
00:00 0°C° 0 mm 3 m/S 747 mmHg 55%
01:00 0°C° 0 mm 3 m/S 747 mmHg 53%
02:00 0°C° 0 mm 3 m/S 746 mmHg 51%
03:00 +1°C° 0 mm 2 m/S 746 mmHg 50%
04:00 -1°C° 0 mm 2 m/S 745 mmHg 50%
05:00 -1°C° 0 mm 2 m/S 745 mmHg 50%
06:00 +1°C° 0 mm 2 m/S 745 mmHg 50%
07:00 +1°C° 0 mm 2 m/S 745 mmHg 49%
08:00 +1°C° 0 mm 2 m/S 744 mmHg 49%
09:00 +3°C° 0 mm 2 m/S 744 mmHg 45%
10:00 +5°C° 0 mm 2 m/S 743 mmHg 40%
11:00 +6°C° 0 mm 2 m/S 743 mmHg 36%
12:00 +7°C° 0 mm 2 m/S 742 mmHg 34%
13:00 +9°C° 0 mm 2 m/S 742 mmHg 32%
14:00 +10°C° 0 mm 2 m/S 741 mmHg 30%
15:00 +10°C° 0 mm 2 m/S 741 mmHg 32%
16:00 +10°C° 0 mm 2 m/S 741 mmHg 33%
17:00 +10°C° 0 mm 2 m/S 741 mmHg 35%
18:00 +9°C° 0 mm 2 m/S 741 mmHg 39%
19:00 +8°C° 0 mm 2 m/S 741 mmHg 44%
20:00 +6°C° 0 mm 2 m/S 742 mmHg 49%
21:00 +7°C° 0 mm 1 m/S 742 mmHg 50%
22:00 +7°C° 0 mm 1 m/S 742 mmHg 52%
23:00 +6°C° 0 mm 1 m/S 742 mmHg 53%

übermorgen, 1 März, Montag

Zeit Temperatur Niederschläge Wind Luftdruck Luftfeuchtigkeit
00:00 +6°C° 0 mm 1 m/S 741 mmHg 54%
01:00 +6°C° 0 mm 1 m/S 741 mmHg 55%
02:00 +4°C° 0 mm 2 m/S 741 mmHg 55%
03:00 +4°C° 0 mm 2 m/S 741 mmHg 56%
04:00 +4°C° 0 mm 2 m/S 741 mmHg 57%
05:00 +4°C° 0 mm 2 m/S 741 mmHg 58%
06:00 +4°C° 0 mm 2 m/S 741 mmHg 57%
07:00 +4°C° 0 mm 2 m/S 741 mmHg 56%
08:00 +4°C° 0 mm 2 m/S 741 mmHg 55%
09:00 +5°C° 0 mm 3 m/S 741 mmHg 48%
10:00 +9°C° 0 mm 3 m/S 741 mmHg 40%
11:00 +11°C° 0 mm 4 m/S 741 mmHg 33%
12:00 +13°C° 0 mm 4 m/S 741 mmHg 29%
13:00 +14°C° 0 mm 4 m/S 740 mmHg 26%
14:00 +17°C° 0 mm 4 m/S 740 mmHg 23%
15:00 +17°C° 0 mm 4 m/S 740 mmHg 24%
16:00 +17°C° 0 mm 4 m/S 740 mmHg 25%
17:00 +15°C° 0 mm 4 m/S 740 mmHg 27%
18:00 +14°C° 0 mm 4 m/S 740 mmHg 29%
19:00 +12°C° 0 mm 4 m/S 741 mmHg 32%
20:00 +11°C° 0 mm 4 m/S 741 mmHg 34%
21:00 +10°C° 0 mm 4 m/S 741 mmHg 35%
22:00 +9°C° 0 mm 5 m/S 741 mmHg 35%
23:00 +8°C° 0 mm 5 m/S 741 mmHg 35%

2 März, Dienstag

Zeit Temperatur Niederschläge Wind Luftdruck Luftfeuchtigkeit
00:00 +8°C° 0 mm 5 m/S 741 mmHg 35%
01:00 +8°C° 0 mm 5 m/S 742 mmHg 34%
02:00 +8°C° 0 mm 5 m/S 742 mmHg 34%
03:00 +8°C° 0 mm 5 m/S 742 mmHg 35%
04:00 +8°C° 0 mm 4 m/S 742 mmHg 36%
05:00 +8°C° 0 mm 3 m/S 742 mmHg 37%
06:00 +8°C° 0 mm 3 m/S 742 mmHg 38%
07:00 +8°C° 0 mm 3 m/S 742 mmHg 39%
08:00 +8°C° 0 mm 2 m/S 743 mmHg 39%
09:00 +10°C° 0 mm 2 m/S 743 mmHg 36%
10:00 +12°C° 0 mm 2 m/S 743 mmHg 33%
11:00 +14°C° 0 mm 2 m/S 743 mmHg 29%
12:00 +14°C° 0 mm 2 m/S 742 mmHg 28%
13:00 +15°C° 0 mm 2 m/S 742 mmHg 28%
14:00 +16°C° 0 mm 2 m/S 742 mmHg 27%
15:00 +16°C° 0 mm 1 m/S 742 mmHg 29%
16:00 +16°C° 0 mm 1 m/S 742 mmHg 31%
17:00 +15°C° 0 mm 1 m/S 742 mmHg 34%
18:00 +15°C° 0 mm 2 m/S 742 mmHg 36%
19:00 +14°C° 0 mm 2 m/S 743 mmHg 38%
20:00 +13°C° 0 mm 2 m/S 743 mmHg 41%
21:00 +12°C° 0 mm 2 m/S 743 mmHg 43%
22:00 +10°C° 0 mm 2 m/S 743 mmHg 46%
23:00 +9°C° 0 mm 3 m/S 743 mmHg 49%

3 März, Mittwoch

Zeit Temperatur Niederschläge Wind Luftdruck Luftfeuchtigkeit
00:00 +8°C° 0 mm 2 m/S 743 mmHg 51%
01:00 +8°C° 0 mm 2 m/S 743 mmHg 53%
02:00 +7°C° 0 mm 2 m/S 742 mmHg 55%
03:00 +7°C° 0 mm 2 m/S 742 mmHg 57%
04:00 +7°C° 0 mm 2 m/S 742 mmHg 59%
05:00 +7°C° 0 mm 2 m/S 742 mmHg 61%
06:00 +7°C° 0 mm 2 m/S 742 mmHg 62%
07:00 +8°C° 0 mm 1 m/S 742 mmHg 63%
08:00 +9°C° 0 mm 1 m/S 742 mmHg 64%
09:00 +10°C° 0 mm 1 m/S 741 mmHg 58%
10:00 +11°C° 0 mm 1 m/S 741 mmHg 52%
11:00 +12°C° 0 mm 0 m/S 741 mmHg 47%
12:00 +14°C° 0 mm 1 m/S 740 mmHg 45%
13:00 +14°C° 0 mm 1 m/S 740 mmHg 43%
14:00 +15°C° 0 mm 2 m/S 740 mmHg 41%
15:00 +15°C° 0.1 mm 2 m/S 740 mmHg 48%
16:00 +14°C° 0.1 mm 2 m/S 739 mmHg 54%
17:00 +12°C° 0.1 mm 3 m/S 739 mmHg 61%
18:00 +11°C° 0.2 mm 3 m/S 739 mmHg 66%
19:00 +11°C° 0.2 mm 4 m/S 740 mmHg 71%
20:00 +10°C° 0.2 mm 4 m/S 740 mmHg 76%
21:00 +10°C° 0 mm 4 m/S 740 mmHg 79%
22:00 +9°C° 0 mm 3 m/S 740 mmHg 83%
23:00 +9°C° 0 mm 3 m/S 740 mmHg 86%

4 März, Donnerstag

Zeit Temperatur Niederschläge Wind Luftdruck Luftfeuchtigkeit
00:00 +9°C° 0 mm 2 m/S 740 mmHg 85%
01:00 +8°C° 0 mm 2 m/S 739 mmHg 85%
02:00 +8°C° 0 mm 2 m/S 739 mmHg 85%
03:00 +8°C° 0 mm 2 m/S 739 mmHg 84%
04:00 +8°C° 0 mm 2 m/S 739 mmHg 84%
05:00 +8°C° 0 mm 2 m/S 739 mmHg 84%
06:00 +8°C° 0 mm 2 m/S 740 mmHg 81%
07:00 +8°C° 0 mm 2 m/S 740 mmHg 78%
08:00 +8°C° 0 mm 2 m/S 740 mmHg 75%
09:00 +10°C° 0 mm 2 m/S 740 mmHg 68%
10:00 +12°C° 0 mm 3 m/S 740 mmHg 60%
11:00 +14°C° 0 mm 3 m/S 740 mmHg 53%
12:00 +16°C° 0 mm 2 m/S 740 mmHg 48%
13:00 +18°C° 0 mm 1 m/S 739 mmHg 43%
14:00 +19°C° 0 mm 1 m/S 739 mmHg 38%
15:00 +19°C° 0 mm 1 m/S 739 mmHg 39%
16:00 +17°C° 0 mm 2 m/S 739 mmHg 40%
17:00 +17°C° 0 mm 2 m/S 739 mmHg 41%
18:00 +14°C° 0.1 mm 4 m/S 739 mmHg 52%
19:00 +11°C° 0.1 mm 6 m/S 740 mmHg 62%
20:00 +8°C° 0.1 mm 7 m/S 740 mmHg 73%
21:00 +7°C° 0.9 mm 6 m/S 741 mmHg 77%
22:00 +7°C° 0.9 mm 5 m/S 741 mmHg 82%
23:00 +6°C° 0.9 mm 4 m/S 742 mmHg 86%
Mehr zeigen

Wir brauchen deine Erlaubnis

Meteoprog und unser Service Anbieter werden persönliche Daten aufbewahren, so wie Cookies, Geräte Bezeichnung oder ähnliche Technologien von deinem Gerät und Prozess, so wie Persönliche Daten Inhalte und Werbungen, genauso wie social Media und den Verkehr zu analysieren.

  • Aufbewahrung und/oder Zugang zu deiner Geräte Informationen.

    Cookies, Geräte Bezeichnung oder andere Informationen, können aufbewahrt oder Zugang zu deinem Gerät erhalten, für den Grund, der oben angegeben wird.

  • Personalisierte Werbung und Inhalte, Messungen, Einblick in das Publikum und Produkt Entwicklung.

    Werbungen und Inhalte können personalisiert werden, basierend auf ein Profil. Mehr Daten können besser personalisierte Werbungen und Inhalte hinzufügen. Werbung und Inhalte können gezeigt und gemessen werden. Einblicke über das Publikum, welche die Werbung gesehen haben und den Inhalt, können abgeleitet werden. So wie Daten können genutzt werden, um es zu verbessern oder die Benutzer Erfahrung zu verbessern das System und die Software.

Wenn du “Ich stimme zu” klickst, erlaubst du uns, die Cookies zu benutzen die Geräte Bezeichnung, den Web oder ähnliche Technologien zu benutzen. Deine Settings, können in deinem Gerät bei deinem Browser geändert werden.

Für den bestimmten Zweck, berechtigten Interessen beruhen darauf, mehr als auf den Inhalt. Du kannst mehr darüber in unseren Privaten und Cookie Politik lesen.